Location: Gugi
(45.4667°N, 11.1000°E)
Time: 01:48:16
(UTC+00:00)

Cosmos 2263 Rocket - Pass Details

Date: 24 February 2020
Orbit: 822 x 850 km, 71.0° (Epoch: 06 April)

Event Time Altitude Azimuth Distance (km) Brightness Sun altitude
Rises 19:43:42 0° 343° (NNW) 3,413 5.8 -30.1°
Reaches altitude 10° 19:48:06 10° 15° (NNE) 2,480 4.7 -30.8°
Enters shadow 19:48:15 10° 16° (NNE) 2,462 4.6 -30.8°
